Zurück zum Katalog

ICEYE-X71

AktivWissenschaftSSO
NORAD 68494·PAYLOAD·🇫🇮 Finland

Gestartet Mar 30, 2026 von Vandenberg Space Force Base

Loading…

Nächste Überflüge (nächste 24 Stunden)

TLE

AktuellSource: Space-Track

Epoche: Sep 14, 2026, 13:58 UTC

1 68494U 26067CG  26257.58250323  .00008056  00000-0  68014-3 0  9993
2 68494  97.7725 214.7010 0004685  75.9139 284.2604 14.98374223 25075

Verfolge ICEYE-X71 in Echtzeit mit AllMySat

Download on the App Store